Find Starlink 3997

NORAD ID: 52609 Int'l Des: 2022-052 Owner: SPXS Country: US Constellation: starlink operational
LEOCIRCULAR

当前视图

正在加载3D地球...

About Starlink 3997

Starlink 3997 (NORAD 52609) is a starlink constellation satellite (v1.5) launched May 14, 2022 by SPXS of US. It operates in LEO, CIRCULAR orbit with a mass of 297.00 kg.

关于 Starlink 3997

正在加载描述...

即将过境

Passes for default location (London). Set your location on the main map for personalized predictions.

高度历史

Loading altitude history...

两行轨道根数

1 52609U 22052M 26168.32502816 .00000374 00000-0 41608-4 0 9990
2 52609 53.1590 191.6942 0001100 87.8120 272.2997 15.08834905225906
Epoch: Jun 17, 2026 • Age: 26 hours

当前状态

高度 548.8 km
速度 7.59 km/s
星下点 -28.62°S, 28.81°W
发射日期 May 14, 2022
运行时间 4 years
类型 internet

技术详情

分类 Payload
质量 297.00 kg
干质量 275.00 kg
总质量 297.00 kg
长度 0.20 m
直径 2.80 m
跨度 9.00 m
形状 Box + pan
制造商 SPXS
平台类型 Starlink
阶段状态 In Orbit
所有者/国家 SPXS/US

Most Searched